Wind_Speed
20 19 17 15 14 14 13 14 14 16 18 19 22 23 26 29 31 33 35 36 37 38 37 35 35 34 36
20 18 17 17 16 15 15 15 16 18 19 20 23 24 26 29 32 34 35 36 38 37 36 34 34 34 36
21 20 19 17 16 17 17 16 18 19 20 22 23 25 27 30 33 34 36 37 38 37 36 34 34 34 37
23 22 20 18 17 18 17 18 19 20 21 22 24 26 28 30 34 35 36 37 37 36 35 35 34 36 39
25 24 21 19 17 19 19 20 19 20 22 23 25 27 29 32 35 35 36 36 36 34 34 33 35 39 41
26 24 21 21 21 20 19 20 19 21 23 24 25 28 29 32 34 35 36 36 35 34 33 33 36 40 43
29 25 23 22 23 21 21 21 20 22 23 24 26 28 30 32 33 35 36 35 34 33 33 35 39 42 44
28 25 24 23 23 23 23 21 21 24 27 24 26 28 30 31 33 34 35 34 32 32 35 39 42 44 45
28 26 26 25 25 24 22 24 26 34 24 23 26 28 29 31 32 33 33 31 29 31 36 42 45 46 46
30 28 27 26 26 26 24 25 37 28 22 25 26 27 29 31 31 31 30 28 29 33 37 42 45 47 47
31 29 27 26 28 25 24 33 35 23 24 26 26 27 30 31 31 29 27 26 30 34 37 41 42 45 47
32 29 27 25 27 27 36 41 27 22 24 24 25 27 28 29 29 26 25 27 31 34 37 40 41 41 43
29 29 27 28 31 33 39 34 21 21 21 23 24 26 27 28 26 23 25 27 30 34 36 40 43 44 44
30 32 31 42 33 37 38 26 21 22 22 22 23 25 26 26 22 22 25 28 32 35 35 38 41 41 41
36 40 41 37 36 35 33 23 23 22 20 21 23 25 25 23 21 23 26 29 33 36 36 35 39 40 38
34 34 29 30 31 24 21 21 21 20 20 20 22 24 23 20 21 24 27 30 33 35 37 39 37 37 36
30 27 25 27 22 22 21 20 18 19 19 21 22 22 19 20 21 24 27 30 32 34 37 38 37 35 36
Wind_Direction
226 230 235 240 245 253 263 272 285 292 301 310 314 317 323 326 330 333 338 336 334 336 337 336 336 334 334
228 234 238 241 247 257 264 274 281 289 297 304 308 314 319 324 327 331 334 332 335 335 335 336 333 333 334
232 236 239 244 250 255 262 271 280 287 294 301 308 312 316 323 325 329 330 334 334 333 335 335 333 333 334
236 239 242 246 250 259 265 272 279 286 294 298 305 308 315 321 325 328 332 332 332 333 335 333 332 334 335
238 241 244 249 255 257 263 273 277 285 291 300 303 308 316 320 323 328 330 331 332 334 333 331 334 334 334
238 240 244 250 256 259 265 270 276 284 293 297 303 307 314 319 323 326 329 330 333 334 330 332 334 333 333
239 243 246 250 254 257 262 266 276 285 287 293 301 306 314 316 322 326 328 331 333 330 330 334 333 334 333
244 244 248 252 256 258 263 269 274 280 283 294 301 306 311 317 322 325 328 331 331 329 333 333 333 333 333
242 245 247 250 253 259 263 270 279 293 284 294 299 305 310 318 321 324 328 330 328 331 332 332 332 333 333
242 245 248 250 255 259 266 278 292 276 284 294 299 303 312 318 320 325 328 328 329 333 332 332 332 331 333
244 247 249 253 259 262 273 282 285 279 286 295 296 305 312 316 320 326 325 329 331 332 332 329 329 331 335
240 245 249 256 263 261 277 287 271 281 289 295 300 305 310 313 321 323 326 328 330 330 329 327 332 334 335
244 243 241 250 258 265 280 279 275 285 288 293 301 305 308 315 319 321 324 326 327 327 329 332 335 336 337
237 238 247 277 256 268 284 269 281 281 286 295 300 304 309 316 316 319 322 325 326 328 332 335 334 337 337
253 253 265 270 267 273 279 272 276 283 287 294 302 305 311 312 313 318 321 323 326 330 335 337 336 338 338
263 269 269 264 276 269 264 274 270 282 288 296 299 304 307 307 312 315 319 323 327 331 334 337 340 338 338
259 263 268 276 259 261 268 269 275 282 289 295 299 303 301 302 308 312 319 323 327 331 334 338 341 341 339
Height
3183 3184 3185 3187 3188 3189 3189 3189 3189 3188 3186 3183 3181 3178 3175 3171 3167 3162 3156 3151 3145 3139 3134 3128 3122 3116 3111
3179 3181 3182 3183 3185 3186 3186 3186 3185 3184 3182 3179 3177 3175 3171 3168 3164 3158 3152 3147 3140 3135 3129 3124 3118 3112 3107
3175 3177 3177 3179 3181 3182 3182 3182 3181 3180 3178 3175 3174 3171 3167 3164 3159 3154 3148 3142 3136 3131 3125 3120 3115 3109 3103
3171 3172 3174 3176 3177 3178 3178 3178 3177 3176 3174 3171 3169 3166 3163 3160 3156 3150 3144 3138 3133 3127 3121 3116 3110 3105 3099
3166 3167 3169 3172 3174 3174 3173 3173 3172 3172 3169 3167 3164 3163 3158 3155 3151 3146 3140 3134 3128 3122 3117 3112 3107 3101 3094
3162 3163 3165 3167 3168 3169 3168 3168 3168 3167 3165 3163 3160 3157 3153 3150 3146 3141 3136 3129 3123 3119 3115 3109 3103 3097 3089
3156 3158 3160 3162 3163 3164 3163 3163 3163 3162 3160 3157 3155 3152 3148 3145 3141 3136 3132 3125 3119 3115 3110 3105 3099 3092 3084
3152 3153 3155 3157 3159 3159 3158 3158 3157 3156 3154 3151 3149 3147 3144 3140 3137 3132 3127 3120 3115 3111 3104 3099 3094 3087 3078
3146 3147 3149 3151 3153 3153 3153 3153 3151 3151 3148 3146 3144 3142 3140 3136 3132 3127 3121 3115 3112 3107 3100 3095 3087 3080 3072
3139 3141 3144 3145 3147 3147 3148 3147 3147 3144 3143 3142 3140 3137 3135 3131 3126 3121 3116 3112 3109 3103 3097 3090 3083 3074 3066
3133 3136 3139 3141 3141 3142 3142 3141 3140 3138 3138 3136 3134 3132 3129 3125 3121 3115 3111 3108 3103 3098 3093 3086 3079 3070 3060
3126 3130 3134 3134 3136 3136 3136 3135 3133 3133 3132 3130 3128 3127 3123 3120 3115 3111 3107 3103 3098 3093 3088 3082 3074 3066 3057
3121 3125 3126 3127 3129 3129 3129 3129 3128 3127 3125 3124 3122 3120 3118 3114 3110 3107 3103 3099 3095 3090 3084 3075 3067 3059 3052
3114 3117 3119 3122 3122 3123 3123 3122 3121 3121 3120 3118 3117 3114 3112 3109 3105 3103 3099 3094 3088 3083 3078 3070 3062 3055 3047
3108 3111 3114 3114 3115 3115 3116 3115 3115 3115 3113 3113 3111 3109 3106 3103 3100 3097 3094 3089 3083 3077 3072 3067 3057 3050 3042
3101 3104 3105 3107 3108 3108 3109 3109 3109 3109 3108 3107 3106 3104 3101 3098 3095 3092 3088 3084 3078 3071 3065 3059 3054 3046 3039
3095 3096 3098 3101 3101 3103 3104 3104 3103 3103 3103 3102 3100 3098 3096 3094 3091 3087 3083 3079 3073 3066 3060 3054 3048 3041 3034